[[{"header":{"parameterUnit":"m.s-1","parameterCategory":2,"la1":30.2991,"la2":30.254,"lo1":-89.0895,"lo2":-89.0444,"dy":0.0017,"dx":0.0017,"nx":28,"ny":28,"refTime":"2024-08-13T09:00:00:Z","depth":"0","parameterNumber":2,"parameterNumberName":"U-component_of_CURRENTS"},"data":[0,0,0,0,0,0,0,0,0,0,0,0,0,0,0,0,0,0,0,0,0,0,0,0,0,0,0,0,0,0,0,0,0,0,0,0,0,0,0,0,0,0,0,0,0,0,0,0,0,0,0,0,0,0,0,0,0,0,-0.0818,-0.0818,0,-0.082,-0.082,-0.082,-0.0778,-0.0777,-0.0775,-0.0774,-0.0766,-0.0767,-0.0768,0,0,0,0,0,0,0,0,0,0,0,0,0,-0.0732,-0.0734,-0.0818,-0.0818,-0.0818,-0.082,-0.082,-0.082,-0.0778,-0.0777,-0.0775,-0.0774,-0.0766,-0.0767,-0.0768,0,0,0,0,0,0,0,0,0,0,0,0,0,-0.0755,-0.0735,-0.0818,-0.0797,-0.0795,-0.082,-0.082,-0.082,-0.0778,-0.0777,-0.0775,-0.0773,-0.0765,-0.0767,-0.0768,-0.0811,0,0,-0.0772,-0.0772,0,0,0,0,0,0,0,0,-0.0754,-0.0759,-0.08,-0.0799,-0.0797,-0.0797,-0.0787,-0.0816,-0.0779,-0.0785,-0.0774,-0.0772,-0.0777,-0.0777,-0.0781,-0.081,-0.081,-0.0772,-0.0773,-0.0773,-0.0774,0,0,0,0,0,0,0,-0.0753,-0.0758,-0.0819,-0.08,-0.0798,-0.0772,-0.0774,-0.0792,-0.0791,-0.0784,-0.0781,-0.0782,-0.0775,-0.078,-0.0781,-0.081,-0.0772,-0.0773,-0.0774,-0.0774,-0.087,-0.0872,0,0,0,0,0,0,-0.0757,-0.0757,-0.0819,-0.0819,-0.077,-0.0775,-0.0777,-0.0799,-0.079,-0.0788,-0.0783,-0.078,-0.0779,-0.0779,-0.078,-0.0821,-0.0773,-0.0775,-0.0775,-0.0868,-0.087,-0.0872,0,0,0,0,0,0,-0.0756,-0.0764,-0.0819,-0.0786,-0.0791,-0.0779,-0.0803,-0.08,-0.0802,-0.079,-0.0786,-0.0788,-0.0778,-0.0779,-0.0812,-0.082,-0.0775,-0.0776,-0.0866,-0.0869,-0.0871,-0.0907,0,0,0,0,0,0,-0.0754,-0.0764,-0.0781,-0.0788,-0.0793,-0.0842,-0.0804,-0.0801,-0.0805,-0.08,-0.0794,-0.0791,-0.0776,-0.0811,-0.0814,-0.0821,-0.0777,-0.0864,-0.0867,-0.087,-0.0904,-0.0911,-0.0917,0,0,0,0,0,-0.0751,-0.0774,-0.0783,-0.079,-0.0819,-0.0843,-0.0844,-0.0828,-0.0807,-0.0821,-0.0822,-0.0791,-0.0833,-0.0814,-0.0817,-0.0824,-0.0862,-0.0866,-0.087,-0.0901,-0.091,-0.0917,0,0,0,0,0,0,-0.0728,-0.0772,-0.0782,-0.0814,-0.0834,-0.0836,-0.0839,-0.0837,-0.0848,-0.0837,-0.0824,-0.0824,-0.0852,-0.0847,-0.0827,-0.0865,-0.0839,-0.0843,-0.0861,-0.0869,-0.0876,-0.0857,-0.0778,0,0,0,0,0,-0.074,-0.0776,-0.0807,-0.083,-0.0842,-0.0847,-0.0853,-0.0848,-0.0856,-0.0858,-0.0857,-0.0859,-0.0874,-0.0878,-0.089,-0.0921,-0.0907,-0.0927,-0.0933,-0.0938,-0.0928,-0.0963,-0.0971,-0.0885,-0.0885,-0.0885,0,0,-0.0727,-0.0762,-0.0776,-0.0829,-0.0836,-0.0854,-0.0845,-0.0857,-0.087,-0.0858,-0.0874,-0.0885,-0.0891,-0.0918,-0.0929,-0.0912,-0.095,-0.0943,-0.0948,-0.0934,-0.0967,-0.0975,-0.0983,-0.0888,-0.0887,-0.0887,0,0,-0.0713,-0.0763,-0.0782,-0.081,-0.0841,-0.0857,-0.0866,-0.0884,-0.0892,-0.0925,-0.0915,-0.0943,-0.0959,-0.0969,-0.0974,-0.1031,-0.0987,-0.1026,-0.1038,-0.1073,-0.1079,-0.1085,-0.1047,-0.105,-0.1025,-0.1025,-0.1025,0,-0.0697,-0.0733,-0.0786,-0.081,-0.0823,-0.0861,-0.0868,-0.0898,-0.0923,-0.0936,-0.093,-0.0973,-0.0982,-0.1017,-0.103,-0.1043,-0.1029,-0.1004,-0.1079,-0.1085,-0.109,-0.105,-0.1052,-0.1027,-0.1027,-0.1027,-0.1027,0,-0.0691,-0.0723,-0.0735,-0.0788,-0.0816,-0.0833,-0.0881,-0.0915,-0.0933,-0.0951,-0.0995,-0.1026,-0.1041,-0.1058,-0.1057,-0.1099,-0.1063,-0.1086,-0.1053,-0.11,-0.1056,-0.1057,-0.103,-0.103,-0.1029,-0.1028,0,0,-0.0664,-0.0718,-0.0725,-0.0735,-0.0806,-0.0821,-0.0872,-0.0921,-0.0938,-0.0989,-0.1007,-0.1062,-0.1071,-0.108,-0.1095,-0.1128,-0.115,-0.1116,-0.1116,-0.1064,-0.1169,-0.0993,-0.0977,-0.1187,-0.1188,-0.1189,-0.111,0,-0.0644,-0.0667,-0.0706,-0.0723,-0.0743,-0.0801,-0.0839,-0.0891,-0.0939,-0.0976,-0.1034,-0.1055,-0.1083,-0.1083,-0.113,-0.1154,-0.116,-0.1165,-0.1141,-0.1139,-0.0968,-0.0976,-0.0837,-0.0742,-0.1111,-0.1111,-0.1111,0,-0.0643,-0.0661,-0.0669,-0.0698,-0.0707,-0.0723,-0.0788,-0.0818,-0.0902,-0.0934,-0.099,-0.1026,-0.1085,-0.11,-0.1162,-0.1161,-0.1155,-0.1171,-0.1169,-0.0991,-0.0967,-0.0763,-0.073,-0.0652,-0.1113,-0.1113,-0.1113,0,-0.0619,-0.064,-0.064,-0.0655,-0.0698,-0.0706,-0.0724,-0.0802,-0.0825,-0.09,-0.0913,-0.1004,-0.1021,-0.1083,-0.1107,-0.1138,-0.1144,-0.1196,-0.1023,-0.1009,-0.0874,-0.0845,-0.075,-0.1215,-0.1215,-0.1216,-0.1216,0,-0.0615,-0.0616,-0.0622,-0.0628,-0.0629,-0.0658,-0.0669,-0.0717,-0.0761,-0.0774,-0.087,-0.0886,-0.102,-0.1042,-0.1085,-0.1026,-0.1123,-0.1,-0.0982,-0.0877,-0.085,-0.0763,-0.0843,-0.1213,-0.1213,-0.1214,-0.1214,0,-0.0614,-0.0617,-0.062,-0.0628,-0.0627,-0.0627,-0.0629,-0.0637,-0.0675,-0.0695,-0.0709,-0.0794,-0.0812,-0.089,-0.0956,-0.0945,-0.091,-0.0889,-0.071,-0.067,-0.043,-0.052,-0.0575,-0.0565,-0.0697,-0.0692,-0.0688,0,-0.0612,-0.0616,-0.0617,-0.0611,-0.0612,-0.0603,-0.0602,-0.0616,-0.0616,-0.0627,-0.0628,-0.0637,-0.0633,-0.0626,-0.0633,-0.0621,-0.0714,-0.0446,-0.0489,-0.036,-0.0451,-0.0624,-0.0629,-0.0324,-0.0317,-0.0312,-0.0307,0,-0.061,-0.0615,-0.0613,-0.0598,-0.0585,-0.0568,-0.0547,-0.0532,-0.0532,-0.0517,-0.0473,-0.045,-0.0411,-0.0335,-0.0281,-0.027,-0.0423,-0.0327,-0.0281,-0.0202,-0.0308,-0.0304,-0.0394,-0.0259,-0.0264,-0.0267,-0.027,-0.0272,-0.0596,-0.0598,-0.0581,-0.0561,-0.0553,-0.0511,-0.0461,-0.0428,-0.0375,-0.0297,-0.0312,-0.0199,-0.0103,-0.0012,0.0034,0.0214,-0.0075,0.0234,0.0103,-0.009,-0.0053,0.0026,0.0233,0.0231,0.0229,0.0228,0.0226,0,-0.0547,-0.0541,-0.0531,-0.049,-0.0456,-0.0467,-0.0404,-0.0326,-0.0222,-0.0141,-0.0054,0.0151,0.0326,0.0419,0.0623,0.0665,0.05,0.0615,0.0386,0.0351,0.0404,0.0462,0.0835,0.0835,0.0835,0.0835,0.0834,0.0834,-0.0515,-0.0478,-0.0467,-0.0384,-0.0366,-0.028,-0.023,-0.0132,-0.0036,0.0173,0.0326,0.041,0.0582,0.0824,0.1031,0.098,0.0763,0.066,0.0531,0.0603,0.0556,0.0512,0.0558,0.0944,0.0943,0.054,0.0536,0.0534]},{"header":{"parameterUnit":"m.s-1","parameterCategory":2,"la1":30.2991,"la2":30.254,"lo1":-89.0895,"lo2":-89.0444,"dy":0.0017,"dx":0.0017,"nx":28,"ny":28,"refTime":"2024-08-13T09:00:00:Z","depth":"0","parameterNumber":3,"parameterNumberName":"V-component_of_CURRENTS"},"data":[0,0,0,0,0,0,0,0,0,0,0,0,0,0,0,0,0,0,0,0,0,0,0,0,0,0,0,0,0,0,0,0,0,0,0,0,0,0,0,0,0,0,0,0,0,0,0,0,0,0,0,0,0,0,0,0,0,0,-0.0944,-0.0944,0,-0.0947,-0.0947,-0.0947,-0.0918,-0.0917,-0.0916,-0.0915,-0.0911,-0.0912,-0.0912,0,0,0,0,0,0,0,0,0,0,0,0,0,-0.0871,-0.0873,-0.0944,-0.0944,-0.0944,-0.0947,-0.0947,-0.0947,-0.0918,-0.0917,-0.0916,-0.0915,-0.0911,-0.0911,-0.0912,0,0,0,0,0,0,0,0,0,0,0,0,0,-0.0893,-0.0874,-0.0944,-0.0929,-0.0928,-0.0947,-0.0947,-0.0947,-0.0918,-0.0917,-0.0915,-0.0914,-0.091,-0.0911,-0.0912,-0.0947,0,0,-0.0916,-0.0916,0,0,0,0,0,0,0,0,-0.0892,-0.0896,-0.0931,-0.093,-0.0929,-0.0929,-0.0919,-0.0946,-0.0918,-0.0923,-0.0915,-0.0913,-0.0917,-0.0917,-0.0923,-0.0947,-0.0947,-0.0916,-0.0917,-0.0917,-0.0917,0,0,0,0,0,0,0,-0.089,-0.0895,-0.0947,-0.0931,-0.093,-0.0907,-0.0909,-0.0924,-0.0929,-0.0923,-0.092,-0.0919,-0.0916,-0.0922,-0.0922,-0.0946,-0.0916,-0.0917,-0.0918,-0.0918,-0.0988,-0.0989,0,0,0,0,0,0,-0.0892,-0.0894,-0.0947,-0.0947,-0.0905,-0.0909,-0.0912,-0.0932,-0.0928,-0.0926,-0.092,-0.0917,-0.092,-0.0921,-0.0922,-0.0961,-0.0917,-0.0918,-0.0919,-0.0987,-0.0988,-0.099,0,0,0,0,0,0,-0.0891,-0.0897,-0.0946,-0.0918,-0.0922,-0.0912,-0.0935,-0.0932,-0.0933,-0.0926,-0.0924,-0.0922,-0.0919,-0.092,-0.0944,-0.0961,-0.0919,-0.092,-0.0986,-0.0987,-0.0989,-0.1041,0,0,0,0,0,0,-0.0889,-0.0897,-0.0905,-0.0919,-0.0924,-0.0968,-0.0936,-0.0933,-0.0934,-0.0931,-0.0928,-0.0926,-0.0918,-0.0943,-0.0945,-0.0962,-0.0921,-0.0984,-0.0986,-0.0989,-0.1038,-0.1044,-0.105,0,0,0,0,0,-0.0887,-0.0908,-0.0906,-0.0912,-0.0938,-0.0969,-0.0971,-0.0958,-0.0936,-0.0951,-0.0947,-0.0926,-0.0958,-0.0945,-0.0948,-0.0965,-0.0983,-0.0986,-0.0988,-0.1035,-0.1043,-0.105,0,0,0,0,0,0,-0.0876,-0.0907,-0.0906,-0.0934,-0.0953,-0.0964,-0.097,-0.0963,-0.0971,-0.0964,-0.0949,-0.095,-0.0972,-0.0967,-0.0953,-0.0991,-0.0964,-0.0968,-0.0999,-0.1006,-0.1012,-0.1016,-0.0921,0,0,0,0,0,-0.088,-0.0909,-0.093,-0.0954,-0.0964,-0.0968,-0.0973,-0.0973,-0.0982,-0.0983,-0.0984,-0.0983,-0.0988,-0.0996,-0.1002,-0.1033,-0.0964,-0.1043,-0.1049,-0.1055,-0.106,-0.0985,-0.0984,-0.0999,-0.0999,-0.0999,0,0,-0.0883,-0.0903,-0.0918,-0.0954,-0.0965,-0.1002,-0.0969,-0.099,-0.1021,-0.0984,-0.1023,-0.1007,-0.1001,-0.1029,-0.1038,-0.1026,-0.1004,-0.1058,-0.1062,-0.1065,-0.0988,-0.0986,-0.0984,-0.1,-0.1,-0.1,0,0,-0.0909,-0.0924,-0.0955,-0.0981,-0.1005,-0.102,-0.1029,-0.105,-0.1056,-0.1094,-0.1065,-0.1064,-0.1087,-0.1082,-0.1081,-0.1129,-0.1037,-0.1125,-0.1164,-0.1092,-0.1089,-0.1086,-0.0946,-0.093,-0.1131,-0.1131,-0.1131,0,-0.0898,-0.0953,-0.0968,-0.1006,-0.103,-0.1034,-0.1075,-0.1097,-0.1123,-0.1127,-0.1115,-0.1125,-0.1114,-0.1135,-0.1143,-0.1142,-0.1056,-0.1135,-0.1096,-0.1093,-0.1089,-0.0946,-0.0928,-0.1134,-0.1134,-0.1133,-0.1133,0,-0.096,-0.0994,-0.1017,-0.1075,-0.1107,-0.1144,-0.1178,-0.1203,-0.1206,-0.1212,-0.123,-0.122,-0.1218,-0.1213,-0.1192,-0.1171,-0.1099,-0.1106,-0.1072,-0.109,-0.0938,-0.0919,-0.1138,-0.1137,-0.1136,-0.1136,0,0,-0.0934,-0.1038,-0.1041,-0.1077,-0.1144,-0.1176,-0.1235,-0.1277,-0.1292,-0.1315,-0.133,-0.1335,-0.1303,-0.13,-0.1272,-0.1215,-0.1092,-0.1148,-0.1142,-0.0997,-0.0861,-0.0861,-0.0838,-0.108,-0.1079,-0.1077,-0.0747,0,-0.0964,-0.1053,-0.1102,-0.1181,-0.1222,-0.126,-0.131,-0.1346,-0.1362,-0.1381,-0.1368,-0.137,-0.1347,-0.1328,-0.1278,-0.1156,-0.105,-0.1176,-0.0877,-0.0867,-0.0857,-0.0821,-0.0857,-0.0572,-0.0727,-0.0724,-0.0721,0,-0.099,-0.1047,-0.1137,-0.1222,-0.1243,-0.1295,-0.1355,-0.1403,-0.143,-0.1433,-0.144,-0.142,-0.1375,-0.1341,-0.1136,-0.1211,-0.1029,-0.0918,-0.0903,-0.0879,-0.0834,-0.0591,-0.0529,-0.0374,-0.069,-0.0692,-0.0695,0,-0.0952,-0.1059,-0.1135,-0.117,-0.1274,-0.1309,-0.1359,-0.1403,-0.1427,-0.1455,-0.145,-0.1421,-0.1385,-0.1217,-0.1031,-0.1049,-0.0768,-0.0763,-0.0574,-0.0567,-0.0531,-0.0527,-0.0284,-0.056,-0.0561,-0.0561,-0.0562,0,-0.0955,-0.1,-0.1123,-0.1159,-0.1222,-0.1298,-0.1347,-0.1388,-0.1431,-0.1442,-0.1465,-0.1462,-0.1348,-0.1207,-0.1011,-0.0748,-0.0741,-0.0558,-0.0496,-0.0547,-0.0549,-0.0362,-0.0345,-0.0549,-0.0552,-0.0554,-0.0556,0,-0.0891,-0.0981,-0.1052,-0.117,-0.1206,-0.1243,-0.1335,-0.1358,-0.1407,-0.1422,-0.1426,-0.1445,-0.131,-0.1156,-0.0875,-0.0712,-0.0391,-0.0347,-0.0395,-0.0349,-0.0078,-0.0066,0.015,0.0229,-0.0075,-0.0074,-0.0072,0,-0.0871,-0.091,-0.1036,-0.1073,-0.1126,-0.1196,-0.1235,-0.1324,-0.1345,-0.1403,-0.1395,-0.1339,-0.1305,-0.0955,-0.074,-0.0411,-0.029,-0.0134,-0.0207,-0.0051,0.0011,-0.0031,0.0016,-0.0123,-0.0122,-0.0121,-0.0121,0,-0.0812,-0.086,-0.0921,-0.1002,-0.106,-0.1118,-0.1183,-0.1199,-0.1285,-0.1302,-0.1316,-0.1314,-0.1149,-0.0969,-0.0622,-0.0374,-0.0117,-0.0107,0.0064,-0.0007,-0.0045,0.0055,-0.0299,-0.0114,-0.0115,-0.0115,-0.0115,-0.0116,-0.0748,-0.0769,-0.0857,-0.0929,-0.0982,-0.1024,-0.1044,-0.1091,-0.1119,-0.112,-0.1193,-0.115,-0.1039,-0.0678,-0.042,0.0018,-0.0065,0.0202,0.0222,0.0183,0.0172,-0.0157,0.0057,0.0057,0.0058,0.0058,0.0058,0,-0.0683,-0.0728,-0.0783,-0.0866,-0.0893,-0.0955,-0.0995,-0.0986,-0.0976,-0.0966,-0.0969,-0.0862,-0.0655,-0.0405,0.0014,0.0314,0.0381,0.0499,0.0458,0.0509,0.0266,0.0174,0.0406,0.0406,0.0406,0.0405,0.0405,0.0405,-0.0651,-0.0688,-0.0736,-0.0773,-0.0817,-0.0819,-0.0826,-0.0805,-0.0776,-0.0675,-0.0608,-0.0589,-0.0358,0.0005,0.0494,0.0634,0.0828,0.0759,0.0902,0.0752,0.0727,0.0702,0.0626,0.0949,0.095,0.1109,0.1111,0.1112]}],[{"header":{"parameterUnit":"m.s-1","parameterCategory":2,"la1":30.2991,"la2":30.254,"lo1":-89.0895,"lo2":-89.0444,"dy":0.0017,"dx":0.0017,"nx":28,"ny":28,"refTime":"2024-08-13T09:00:00:Z","depth":"2","parameterNumber":2,"parameterNumberName":"U-component_of_CURRENTS"},"data":[0,0,0,0,0,0,0,0,0,0,0,0,0,0,0,0,0,0,0,0,0,0,0,0,0,0,0,0,0,0,0,0,0,0,0,0,0,0,0,0,0,0,0,0,0,0,0,0,0,0,0,0,0,0,0,0,0,0,-0.2773,-0.2772,0,-0.2686,-0.2685,-0.2684,-0.2705,-0.2707,-0.2708,-0.271,-0.2592,-0.2587,-0.2582,0,0,0,0,0,0,0,0,0,0,0,0,0,-0.2891,-0.2889,-0.2773,-0.2772,-0.2771,-0.2687,-0.2685,-0.2684,-0.2704,-0.2707,-0.2709,-0.2711,-0.2593,-0.2588,-0.2582,0,0,0,0,0,0,0,0,0,0,0,0,0,-0.2824,-0.2889,-0.2773,-0.2773,-0.2772,-0.2687,-0.2685,-0.2684,-0.2704,-0.2707,-0.2709,-0.2712,-0.2595,-0.2588,-0.2581,-0.2481,0,0,-0.2559,-0.2555,0,0,0,0,0,0,0,0,-0.2828,-0.282,-0.2774,-0.2773,-0.2772,-0.2711,-0.2684,-0.2615,-0.2703,-0.2728,-0.271,-0.2713,-0.2628,-0.2618,-0.2593,-0.2475,-0.247,-0.2558,-0.2554,-0.255,-0.2548,0,0,0,0,0,0,0,-0.2833,-0.2823,-0.2737,-0.2773,-0.2771,-0.2755,-0.2749,-0.267,-0.2661,-0.2726,-0.2728,-0.272,-0.2627,-0.26,-0.2591,-0.2468,-0.2558,-0.2552,-0.2547,-0.2544,-0.231,-0.2308,0,0,0,0,0,0,-0.2847,-0.2827,-0.274,-0.2735,-0.2809,-0.2751,-0.2744,-0.2726,-0.2663,-0.2657,-0.2718,-0.2721,-0.2611,-0.2599,-0.2587,-0.2538,-0.255,-0.2544,-0.2539,-0.2312,-0.2309,-0.2307,0,0,0,0,0,0,-0.285,-0.284,-0.2743,-0.2782,-0.2769,-0.2746,-0.2726,-0.2723,-0.2708,-0.2657,-0.2651,-0.2709,-0.2613,-0.2597,-0.2525,-0.2531,-0.254,-0.2534,-0.2314,-0.2311,-0.2308,-0.2393,0,0,0,0,0,0,-0.2853,-0.2841,-0.2837,-0.2782,-0.2767,-0.2704,-0.2723,-0.2719,-0.27,-0.2704,-0.2646,-0.2638,-0.2614,-0.2536,-0.2518,-0.2521,-0.2528,-0.2316,-0.2312,-0.2309,-0.2393,-0.2394,-0.2395,0,0,0,0,0,-0.2858,-0.284,-0.2837,-0.2827,-0.2761,-0.2703,-0.2693,-0.2686,-0.2697,-0.2684,-0.2646,-0.264,-0.2502,-0.2528,-0.2507,-0.2509,-0.2318,-0.2313,-0.2309,-0.2393,-0.2394,-0.2395,0,0,0,0,0,0,-0.289,-0.2838,-0.2835,-0.2804,-0.2764,-0.2708,-0.269,-0.268,-0.2637,-0.2641,-0.2603,-0.259,-0.2531,-0.2487,-0.2517,-0.2426,-0.2412,-0.2403,-0.2482,-0.2483,-0.2484,-0.2478,-0.2522,0,0,0,0,0,-0.2893,-0.2864,-0.2817,-0.2789,-0.2768,-0.2726,-0.2704,-0.2694,-0.2648,-0.2633,-0.2594,-0.2543,-0.2488,-0.2465,-0.2401,-0.2339,-0.2285,-0.2325,-0.2326,-0.2328,-0.2304,-0.2249,-0.2245,-0.2294,-0.2294,-0.2294,0,0,-0.2895,-0.2865,-0.2847,-0.2794,-0.2758,-0.2717,-0.2719,-0.2679,-0.2655,-0.262,-0.2572,-0.2532,-0.2466,-0.2414,-0.2384,-0.2388,-0.228,-0.2322,-0.2325,-0.23,-0.2245,-0.224,-0.2236,-0.2291,-0.2291,-0.2292,0,0,-0.2866,-0.2855,-0.2815,-0.2783,-0.2735,-0.2711,-0.2702,-0.2646,-0.2637,-0.2574,-0.2556,-0.2518,-0.2422,-0.2398,-0.2368,-0.2319,-0.2279,-0.2305,-0.2317,-0.2266,-0.2263,-0.2259,-0.2177,-0.2165,-0.2318,-0.2318,-0.2318,0,-0.2873,-0.2818,-0.2795,-0.275,-0.2728,-0.2709,-0.2667,-0.2642,-0.2577,-0.2559,-0.2568,-0.2449,-0.2414,-0.2356,-0.2358,-0.2326,-0.2276,-0.2336,-0.2272,-0.2267,-0.2262,-0.2179,-0.2165,-0.2322,-0.2321,-0.2321,-0.232,0,-0.2804,-0.2774,-0.2745,-0.269,-0.2666,-0.2625,-0.2597,-0.2577,-0.2568,-0.2542,-0.2484,-0.2438,-0.2377,-0.2372,-0.2353,-0.2303,-0.2271,-0.228,-0.2286,-0.2263,-0.2176,-0.216,-0.2327,-0.2325,-0.2324,-0.2323,0,0,-0.2772,-0.2711,-0.2701,-0.2672,-0.2636,-0.2598,-0.2577,-0.2536,-0.2516,-0.2481,-0.2442,-0.2387,-0.2381,-0.2343,-0.2329,-0.2297,-0.2236,-0.2283,-0.2279,-0.2228,-0.2095,-0.2048,-0.2025,-0.225,-0.2248,-0.2246,-0.2048,0,-0.272,-0.2641,-0.2631,-0.2567,-0.2522,-0.2527,-0.2504,-0.2478,-0.2466,-0.2428,-0.2404,-0.2351,-0.2366,-0.2349,-0.2322,-0.2249,-0.2198,-0.2286,-0.2098,-0.209,-0.2076,-0.2007,-0.1869,-0.1679,-0.2032,-0.2029,-0.2027,0,-0.2643,-0.2605,-0.2536,-0.25,-0.2482,-0.2454,-0.2429,-0.2407,-0.2379,-0.2366,-0.2342,-0.2325,-0.2272,-0.2293,-0.2163,-0.2222,-0.2152,-0.2102,-0.2094,-0.2004,-0.2014,-0.1754,-0.1636,-0.2,-0.2002,-0.2004,-0.2006,0,-0.2598,-0.2537,-0.2486,-0.2468,-0.2426,-0.2409,-0.2396,-0.2379,-0.2345,-0.2327,-0.2286,-0.2257,-0.2202,-0.2141,-0.207,-0.2107,-0.1914,-0.1951,-0.1828,-0.1823,-0.1639,-0.1622,-0.1832,-0.1832,-0.1833,-0.1833,-0.1834,0,-0.2534,-0.2485,-0.2457,-0.2419,-0.2358,-0.2363,-0.2308,-0.2302,-0.2273,-0.2201,-0.2243,-0.2167,-0.2162,-0.2076,-0.2027,-0.1867,-0.1875,-0.1788,-0.1762,-0.1662,-0.165,-0.1883,-0.1891,-0.1826,-0.1828,-0.1829,-0.183,0,-0.2454,-0.2449,-0.2371,-0.2334,-0.2322,-0.2271,-0.2228,-0.2187,-0.2183,-0.2091,-0.2076,-0.2058,-0.1953,-0.1928,-0.1809,-0.1773,-0.1659,-0.16,-0.1476,-0.144,-0.1606,-0.162,-0.1419,-0.1415,-0.1412,-0.141,-0.1408,0,-0.2394,-0.2347,-0.2289,-0.2247,-0.2218,-0.2164,-0.2121,-0.2123,-0.2079,-0.1996,-0.193,-0.185,-0.1727,-0.156,-0.1523,-0.1404,-0.1512,-0.1228,-0.1281,-0.1564,-0.1559,-0.1579,-0.1597,-0.1051,-0.1046,-0.1043,-0.1039,0,-0.2258,-0.2243,-0.2187,-0.2108,-0.2054,-0.2002,-0.1951,-0.1905,-0.1886,-0.1803,-0.1672,-0.1569,-0.142,-0.1257,-0.1172,-0.1107,-0.1255,-0.1144,-0.1424,-0.1212,-0.1211,-0.1211,-0.1241,-0.1004,-0.1008,-0.101,-0.1012,-0.1014,-0.2142,-0.2079,-0.2018,-0.1928,-0.1885,-0.183,-0.1763,-0.1719,-0.1622,-0.146,-0.1424,-0.1203,-0.1157,-0.0939,-0.0861,-0.0856,-0.0966,-0.0934,-0.0947,-0.0965,-0.0992,-0.099,-0.0744,-0.0745,-0.0747,-0.0749,-0.075,0,-0.197,-0.1916,-0.1839,-0.1745,-0.1673,-0.169,-0.1627,-0.1554,-0.1412,-0.123,-0.1062,-0.0832,-0.0666,-0.0652,-0.0566,-0.0548,-0.0563,-0.0535,-0.0557,-0.0591,-0.0621,-0.0635,-0.0289,-0.0288,-0.0287,-0.0286,0,0,-0.1882,-0.1762,-0.1725,-0.1555,-0.1497,-0.1387,-0.1343,-0.1252,-0.1129,-0.086,-0.068,-0.0581,-0.0576,-0.0425,-0.0394,-0.032,-0.045,-0.029,-0.0654,-0.071,-0.0738,-0.0839,-0.0896,0,0,0,0,0]},{"header":{"parameterUnit":"m.s-1","parameterCategory":2,"la1":30.2991,"la2":30.254,"lo1":-89.0895,"lo2":-89.0444,"dy":0.0017,"dx":0.0017,"nx":28,"ny":28,"refTime":"2024-08-13T09:00:00:Z","depth":"2","parameterNumber":3,"parameterNumberName":"V-component_of_CURRENTS"},"data":[0,0,0,0,0,0,0,0,0,0,0,0,0,0,0,0,0,0,0,0,0,0,0,0,0,0,0,0,0,0,0,0,0,0,0,0,0,0,0,0,0,0,0,0,0,0,0,0,0,0,0,0,0,0,0,0,0,0,0.0859,0.086,0,0.1021,0.1023,0.1024,0.1081,0.108,0.1079,0.1079,0.1137,0.1139,0.1141,0,0,0,0,0,0,0,0,0,0,0,0,0,0.0711,0.0713,0.0858,0.086,0.0863,0.102,0.1023,0.1025,0.1081,0.108,0.1079,0.1079,0.1136,0.1138,0.1141,0,0,0,0,0,0,0,0,0,0,0,0,0,0.0814,0.0713,0.0858,0.0909,0.0916,0.102,0.1023,0.1026,0.1081,0.108,0.1079,0.1078,0.1135,0.1138,0.1141,0.118,0,0,0.1151,0.1153,0,0,0,0,0,0,0,0,0.0808,0.0819,0.09,0.0906,0.0913,0.1029,0.0992,0.1072,0.1081,0.1018,0.1079,0.1078,0.1092,0.1099,0.1133,0.1183,0.1185,0.1151,0.1153,0.1155,0.1156,0,0,0,0,0,0,0,0.0801,0.0813,0.0923,0.0902,0.091,0.0964,0.0976,0.1009,0.1056,0.1024,0.1028,0.1046,0.1095,0.113,0.1134,0.1186,0.1151,0.1154,0.1156,0.1157,0.1237,0.1237,0,0,0,0,0,0,0.0776,0.0806,0.0918,0.0928,0.0857,0.0966,0.0981,0.0993,0.1059,0.1069,0.1047,0.1048,0.1125,0.113,0.1136,0.1146,0.1155,0.1158,0.116,0.1236,0.1237,0.1237,0,0,0,0,0,0,0.0772,0.0784,0.0911,0.0871,0.0891,0.0969,0.0984,0.0997,0.1024,0.1078,0.1085,0.1058,0.1124,0.1132,0.1158,0.1149,0.1159,0.1162,0.1236,0.1236,0.1237,0.1189,0,0,0,0,0,0,0.0767,0.0782,0.0789,0.0869,0.0892,0.0966,0.0985,0.1001,0.1037,0.104,0.109,0.1095,0.1124,0.1153,0.1161,0.1154,0.1165,0.1236,0.1236,0.1237,0.1191,0.1188,0.1186,0,0,0,0,0,0.0761,0.077,0.0788,0.0802,0.0897,0.0967,0.0984,0.1037,0.1038,0.1055,0.1083,0.1093,0.1161,0.1156,0.1166,0.1159,0.1236,0.1236,0.1237,0.1192,0.1188,0.1186,0,0,0,0,0,0,0.0704,0.0779,0.08,0.0829,0.089,0.0976,0.0998,0.103,0.1071,0.1059,0.1103,0.1111,0.1131,0.1155,0.1149,0.1183,0.1198,0.12,0.116,0.1157,0.1155,0.1132,0.1167,0,0,0,0,0,0.0696,0.0719,0.08,0.0819,0.0846,0.0919,0.0954,0.0985,0.1032,0.105,0.1083,0.1113,0.1145,0.1156,0.1189,0.1211,0.1206,0.1211,0.1209,0.1206,0.1195,0.1184,0.1179,0.1238,0.1238,0.1238,0,0,0.067,0.072,0.0729,0.0809,0.0856,0.0901,0.0936,0.0977,0.1008,0.1047,0.1081,0.1106,0.115,0.1175,0.1184,0.1189,0.1186,0.1207,0.1204,0.1194,0.1184,0.1178,0.1172,0.1238,0.1238,0.1238,0,0,0.064,0.0682,0.0695,0.0751,0.0822,0.0875,0.0881,0.0957,0.0983,0.102,0.1053,0.1073,0.1122,0.1155,0.1177,0.1181,0.1175,0.1186,0.1152,0.1142,0.1136,0.1131,0.1108,0.1101,0.1182,0.1182,0.1182,0,0.0604,0.0642,0.0709,0.0748,0.0785,0.0857,0.088,0.0933,0.1003,0.1016,0.1015,0.1078,0.1114,0.1149,0.1148,0.1174,0.1156,0.1158,0.1136,0.1131,0.1127,0.1104,0.1097,0.1179,0.118,0.118,0.118,0,0.0595,0.0631,0.0643,0.0716,0.0768,0.0795,0.0877,0.091,0.0934,0.0979,0.1002,0.1046,0.1076,0.1094,0.1122,0.1117,0.111,0.1133,0.1136,0.1117,0.1095,0.1089,0.1176,0.1177,0.1178,0.1178,0,0,0.0477,0.0608,0.0607,0.0642,0.0747,0.0782,0.0834,0.0898,0.0916,0.0957,0.0969,0.1019,0.1023,0.1048,0.1081,0.1075,0.1034,0.1079,0.1079,0.1042,0.0986,0.099,0.0983,0.104,0.1039,0.1038,0.0978,0,0.0438,0.0496,0.0575,0.0619,0.0655,0.0744,0.0788,0.0853,0.0901,0.0934,0.0968,0.0991,0.1015,0.1011,0.1011,0.1038,0.1015,0.1046,0.1022,0.1021,0.1016,0.0976,0.0941,0.0885,0.0972,0.0971,0.097,0,0.0388,0.0444,0.0474,0.0579,0.0597,0.0623,0.0692,0.0745,0.0826,0.0855,0.0882,0.0924,0.0939,0.0951,0.0951,0.0961,0.0957,0.0968,0.0967,0.0981,0.1013,0.0922,0.087,0.096,0.0961,0.0961,0.0962,0,0.0265,0.0365,0.0381,0.0418,0.0544,0.0546,0.0597,0.0689,0.0727,0.079,0.0802,0.0847,0.0844,0.0854,0.0887,0.0904,0.0874,0.0909,0.0904,0.0904,0.0876,0.0875,0.088,0.088,0.088,0.088,0.088,0,0.0195,0.0204,0.0314,0.0324,0.0334,0.0441,0.0451,0.052,0.0597,0.063,0.0725,0.0733,0.0812,0.0828,0.0854,0.0852,0.0842,0.0878,0.0884,0.0859,0.0858,0.0934,0.0941,0.0878,0.0878,0.0879,0.0879,0,0.0059,0.0133,0.0159,0.0256,0.0276,0.0271,0.0361,0.0388,0.0459,0.05,0.051,0.062,0.0652,0.0734,0.0762,0.0796,0.0811,0.0808,0.077,0.0774,0.0852,0.0858,0.0792,0.0792,0.0792,0.0791,0.0791,0,-0.0002,-0.0004,0.0078,0.0092,0.0123,0.0147,0.018,0.0287,0.0334,0.0422,0.0433,0.049,0.0527,0.0585,0.0704,0.0761,0.0767,0.0724,0.0766,0.0828,0.0841,0.0847,0.0853,0.0701,0.07,0.0699,0.0699,0,-0.0113,-0.0098,-0.0063,-0.003,-0.001,0.0044,0.0093,0.0111,0.0238,0.0266,0.0303,0.0323,0.0442,0.0528,0.0639,0.066,0.0727,0.071,0.0765,0.0743,0.0741,0.0755,0.0763,0.0692,0.0692,0.0693,0.0693,0.0693,-0.0209,-0.021,-0.0161,-0.0132,-0.01,-0.0052,-0.002,0.0041,0.0084,0.0158,0.0184,0.026,0.0343,0.0546,0.0575,0.0674,0.0711,0.0691,0.0693,0.0696,0.0711,0.071,0.0656,0.0656,0.0656,0.0657,0.0657,0,-0.029,-0.0267,-0.0248,-0.0191,-0.0168,-0.012,-0.0049,-0.0029,0.0003,0.0094,0.0122,0.0208,0.0323,0.0453,0.0623,0.0655,0.0652,0.061,0.0605,0.0611,0.0617,0.0628,0.0551,0.0551,0.055,0.055,0,0,-0.0323,-0.0322,-0.0288,-0.0256,-0.0219,-0.0159,-0.0117,-0.0122,-0.0047,-0.0021,0.0108,0.0224,0.0383,0.0448,0.0473,0.0541,0.0551,0.0517,0.0597,0.0588,0.0594,0.0658,0.0682,0,0,0,0,0]}],[{"header":{"parameterUnit":"m.s-1","parameterCategory":2,"la1":30.2991,"la2":30.254,"lo1":-89.0895,"lo2":-89.0444,"dy":0.0017,"dx":0.0017,"nx":28,"ny":28,"refTime":"2024-08-13T09:00:00:Z","depth":"4","parameterNumber":2,"parameterNumberName":"U-component_of_CURRENTS"},"data":[0,0,0,0,0,0,0,0,0,0,0,0,0,0,0,0,0,0,0,0,0,0,0,0,0,0,0,0,0,0,0,0,0,0,0,0,0,0,0,0,0,0,0,0,0,0,0,0,0,0,0,0,0,0,0,0,0,0,-0.0822,-0.0823,0,-0.0915,-0.0916,-0.0917,-0.0982,-0.0983,-0.0983,-0.0983,-0.1059,-0.106,-0.1062,0,0,0,0,0,0,0,0,0,0,0,0,0,-0.0785,-0.0785,-0.0822,-0.0823,-0.0824,-0.0914,-0.0916,-0.0917,-0.0982,-0.0983,-0.0983,-0.0984,-0.1058,-0.106,-0.1062,0,0,0,0,0,0,0,0,0,0,0,0,0,-0.0833,-0.0785,-0.0822,-0.0867,-0.0872,-0.0914,-0.0916,-0.0917,-0.0982,-0.0983,-0.0983,-0.0984,-0.1057,-0.106,-0.1062,-0.1065,0,0,-0.107,-0.1071,0,0,0,0,0,0,0,0,-0.083,-0.0834,-0.0859,-0.0864,-0.0869,-0.0936,-0.093,-0.0965,-0.0982,-0.0941,-0.0983,-0.0984,-0.1015,-0.1021,-0.1039,-0.1068,-0.1071,-0.107,-0.1071,-0.1072,-0.1073,0,0,0,0,0,0,0,-0.0826,-0.0831,-0.086,-0.086,-0.0866,-0.0911,-0.0917,-0.0938,-0.0974,-0.0945,-0.095,-0.0958,-0.1018,-0.1036,-0.1041,-0.1073,-0.107,-0.1072,-0.1073,-0.1074,-0.1173,-0.1174,0,0,0,0,0,0,-0.0807,-0.0827,-0.0857,-0.0863,-0.0849,-0.091,-0.0918,-0.0915,-0.0975,-0.0984,-0.0957,-0.096,-0.1032,-0.1038,-0.1044,-0.109,-0.1072,-0.1075,-0.1076,-0.1172,-0.1174,-0.1175,0,0,0,0,0,0,-0.0806,-0.0809,-0.0853,-0.0847,-0.0856,-0.0909,-0.0907,-0.0917,-0.0959,-0.0984,-0.0993,-0.0991,-0.1033,-0.104,-0.1067,-0.1092,-0.1076,-0.1078,-0.1171,-0.1173,-0.1174,-0.1158,0,0,0,0,0,0,-0.0804,-0.0807,-0.0813,-0.0845,-0.0855,-0.0897,-0.0906,-0.0918,-0.096,-0.0967,-0.1015,-0.1022,-0.1034,-0.1064,-0.107,-0.1095,-0.108,-0.1169,-0.1172,-0.1174,-0.1157,-0.1159,-0.116,0,0,0,0,0,-0.0802,-0.0811,-0.0812,-0.0817,-0.0856,-0.0898,-0.0909,-0.095,-0.0962,-0.0988,-0.1005,-0.1021,-0.1083,-0.1066,-0.1073,-0.11,-0.1168,-0.1171,-0.1174,-0.1156,-0.1158,-0.116,0,0,0,0,0,0,-0.0808,-0.0819,-0.0822,-0.0835,-0.0869,-0.0909,-0.0932,-0.096,-0.0997,-0.1003,-0.1023,-0.1031,-0.1074,-0.1087,-0.1067,-0.1138,-0.1134,-0.1138,-0.1119,-0.1121,-0.1123,-0.1152,-0.1082,0,0,0,0,0,-0.0805,-0.0811,-0.0834,-0.085,-0.0856,-0.0896,-0.0921,-0.0953,-0.0983,-0.1003,-0.1035,-0.1065,-0.1088,-0.1102,-0.1135,-0.1158,-0.1165,-0.1186,-0.1188,-0.1189,-0.122,-0.122,-0.1224,-0.1184,-0.1184,-0.1184,0,0,-0.0813,-0.082,-0.0825,-0.0851,-0.0871,-0.0888,-0.0914,-0.0958,-0.0989,-0.1002,-0.1054,-0.1079,-0.1099,-0.1133,-0.1154,-0.1144,-0.1201,-0.1193,-0.1193,-0.1224,-0.1223,-0.1227,-0.123,-0.1185,-0.1185,-0.1185,0,0,-0.0824,-0.083,-0.0832,-0.0857,-0.0891,-0.0908,-0.0922,-0.0973,-0.1012,-0.1061,-0.1073,-0.1115,-0.1158,-0.1177,-0.1187,-0.1221,-0.1217,-0.1229,-0.1252,-0.125,-0.1253,-0.1256,-0.1248,-0.1251,-0.122,-0.122,-0.122,0,-0.0831,-0.0833,-0.0848,-0.0859,-0.0877,-0.0911,-0.0927,-0.0966,-0.1032,-0.1054,-0.1084,-0.116,-0.1188,-0.1207,-0.1228,-0.1228,-0.1215,-0.1232,-0.125,-0.1253,-0.1256,-0.1248,-0.1251,-0.122,-0.122,-0.122,-0.122,0,-0.0838,-0.0849,-0.0854,-0.0861,-0.0888,-0.0915,-0.0951,-0.0992,-0.104,-0.1078,-0.1147,-0.1195,-0.1239,-0.1254,-0.1257,-0.1289,-0.1267,-0.1253,-0.1237,-0.1259,-0.1249,-0.1252,-0.1219,-0.1219,-0.1219,-0.1219,0,0,-0.0823,-0.0849,-0.0853,-0.0857,-0.0894,-0.0913,-0.0951,-0.0989,-0.1017,-0.1103,-0.1144,-0.1222,-0.1261,-0.128,-0.1293,-0.1308,-0.1321,-0.1292,-0.1292,-0.1274,-0.1302,-0.1195,-0.1187,-0.1287,-0.1288,-0.1289,-0.1278,0,-0.082,-0.0829,-0.0854,-0.0872,-0.0869,-0.0913,-0.0948,-0.0995,-0.1048,-0.1096,-0.1161,-0.1218,-0.126,-0.1292,-0.1313,-0.1323,-0.1332,-0.1326,-0.1297,-0.1297,-0.1188,-0.1189,-0.1293,-0.128,-0.1281,-0.1281,-0.1282,0,-0.0812,-0.0814,-0.0825,-0.0861,-0.0867,-0.0896,-0.094,-0.0988,-0.1047,-0.1095,-0.1157,-0.1205,-0.1265,-0.1296,-0.1341,-0.1324,-0.133,-0.1338,-0.1336,-0.1254,-0.1196,-0.1262,-0.1287,-0.1287,-0.1286,-0.1286,-0.1286,0,-0.077,-0.0799,-0.0802,-0.0815,-0.0857,-0.0886,-0.0925,-0.0988,-0.1029,-0.1099,-0.114,-0.1199,-0.125,-0.1277,-0.1329,-0.1324,-0.1355,-0.1337,-0.1248,-0.1239,-0.1347,-0.1344,-0.1368,-0.1368,-0.1368,-0.1368,-0.1368,0,-0.0742,-0.0748,-0.0788,-0.079,-0.0805,-0.0867,-0.0907,-0.0956,-0.1031,-0.1051,-0.115,-0.1177,-0.1251,-0.1279,-0.1309,-0.1287,-0.1337,-0.1264,-0.1231,-0.1338,-0.1335,-0.1347,-0.1345,-0.1368,-0.1368,-0.1368,-0.1368,0,-0.0693,-0.0716,-0.0728,-0.0776,-0.0783,-0.081,-0.0885,-0.0911,-0.1012,-0.1041,-0.107,-0.1157,-0.1186,-0.1248,-0.1274,-0.1251,-0.1249,-0.1228,-0.1342,-0.1314,-0.1137,-0.1135,-0.1112,-0.1109,-0.1105,-0.1103,-0.11,0,-0.067,-0.0664,-0.0704,-0.0699,-0.0722,-0.076,-0.0774,-0.0876,-0.0889,-0.1008,-0.0995,-0.1075,-0.1113,-0.1081,-0.1147,-0.1168,-0.1168,-0.1153,-0.116,-0.1142,-0.1113,-0.1115,-0.1117,-0.1095,-0.1094,-0.1093,-0.1093,0,-0.0618,-0.0644,-0.065,-0.0641,-0.0652,-0.0647,-0.0677,-0.0685,-0.0783,-0.0879,-0.0894,-0.0938,-0.0955,-0.0987,-0.1015,-0.1036,-0.1154,-0.1119,-0.1126,-0.1132,-0.1121,-0.1095,-0.1101,-0.1081,-0.1083,-0.1084,-0.1085,0,-0.0592,-0.0585,-0.0595,-0.0581,-0.0573,-0.0534,-0.0567,-0.0572,-0.0613,-0.0741,-0.0721,-0.0833,-0.09,-0.0916,-0.094,-0.0952,-0.0944,-0.0918,-0.0935,-0.0949,-0.0906,-0.0869,-0.0726,0,0,0,0,0,-0.0554,-0.0529,-0.0521,-0.0493,-0.048,-0.0466,-0.0485,-0.0524,-0.0604,-0.0576,-0.0655,-0.0672,-0.0731,-0.0788,-0.077,-0.0875,-0.095,-0.085,-0.0929,-0.1019,-0.1032,-0.1001,0,0,0,0,0,0,-0.0518,-0.0512,-0.0504,-0.0416,-0.0371,-0.0339,-0.0348,-0.0404,-0.0389,-0.0487,-0.052,-0.0603,-0.0669,-0.0723,-0.0746,-0.0763,-0.0792,-0.0914,-0.0912,-0.1011,-0.1023,-0.1034,-0.1006,0,0,0,0,0]},{"header":{"parameterUnit":"m.s-1","parameterCategory":2,"la1":30.2991,"la2":30.254,"lo1":-89.0895,"lo2":-89.0444,"dy":0.0017,"dx":0.0017,"nx":28,"ny":28,"refTime":"2024-08-13T09:00:00:Z","depth":"4","parameterNumber":3,"parameterNumberName":"V-component_of_CURRENTS"},"data":[0,0,0,0,0,0,0,0,0,0,0,0,0,0,0,0,0,0,0,0,0,0,0,0,0,0,0,0,0,0,0,0,0,0,0,0,0,0,0,0,0,0,0,0,0,0,0,0,0,0,0,0,0,0,0,0,0,0,-0.022,-0.022,0,-0.0218,-0.0218,-0.0218,-0.0222,-0.0222,-0.0222,-0.0221,-0.0194,-0.0194,-0.0193,0,0,0,0,0,0,0,0,0,0,0,0,0,-0.02,-0.0201,-0.022,-0.022,-0.0219,-0.0218,-0.0218,-0.0218,-0.0222,-0.0222,-0.0221,-0.0221,-0.0194,-0.0194,-0.0193,0,0,0,0,0,0,0,0,0,0,0,0,0,-0.0207,-0.0201,-0.022,-0.0219,-0.0218,-0.0218,-0.0218,-0.0218,-0.0222,-0.0222,-0.0221,-0.0221,-0.0195,-0.0194,-0.0193,-0.0192,0,0,-0.019,-0.019,0,0,0,0,0,0,0,0,-0.0207,-0.0208,-0.0219,-0.0219,-0.0218,-0.0217,-0.0201,-0.0207,-0.0222,-0.0224,-0.0221,-0.0221,-0.0198,-0.0197,-0.0201,-0.0191,-0.019,-0.019,-0.019,-0.0189,-0.0189,0,0,0,0,0,0,0,-0.0206,-0.0208,-0.0222,-0.0219,-0.0218,-0.0208,-0.021,-0.0202,-0.0214,-0.0224,-0.0223,-0.0218,-0.0198,-0.0202,-0.0201,-0.0189,-0.019,-0.019,-0.0189,-0.0189,-0.0194,-0.0195,0,0,0,0,0,0,-0.0202,-0.0208,-0.0222,-0.0222,-0.0208,-0.0209,-0.0211,-0.022,-0.0215,-0.0213,-0.0218,-0.0218,-0.0204,-0.0202,-0.02,-0.0231,-0.0189,-0.0189,-0.0188,-0.0193,-0.0194,-0.0195,0,0,0,0,0,0,-0.0202,-0.0204,-0.0222,-0.0211,-0.0213,-0.0209,-0.022,-0.022,-0.0227,-0.021,-0.0209,-0.0225,-0.0204,-0.0201,-0.021,-0.0229,-0.0188,-0.0187,-0.0193,-0.0194,-0.0195,-0.0273,0,0,0,0,0,0,-0.0202,-0.0205,-0.0219,-0.0212,-0.0213,-0.0227,-0.022,-0.022,-0.0223,-0.0223,-0.0215,-0.0213,-0.0203,-0.0211,-0.0209,-0.0227,-0.0187,-0.0192,-0.0193,-0.0194,-0.0269,-0.0276,-0.0282,0,0,0,0,0,-0.0202,-0.0223,-0.022,-0.0222,-0.0231,-0.0227,-0.0228,-0.0226,-0.0223,-0.0231,-0.0234,-0.0213,-0.0217,-0.0212,-0.0209,-0.0227,-0.0191,-0.0193,-0.0194,-0.0267,-0.0275,-0.0282,0,0,0,0,0,0,-0.0222,-0.0225,-0.0222,-0.0243,-0.0236,-0.0227,-0.0233,-0.0229,-0.0238,-0.0236,-0.0227,-0.0225,-0.024,-0.0219,-0.0213,-0.023,-0.0198,-0.0199,-0.0254,-0.0262,-0.0268,-0.0261,-0.0186,0,0,0,0,0,-0.0232,-0.0247,-0.024,-0.0254,-0.0251,-0.0242,-0.0243,-0.0237,-0.0237,-0.0241,-0.0242,-0.0238,-0.0243,-0.0242,-0.0239,-0.0249,-0.0201,-0.0255,-0.0261,-0.0267,-0.0258,-0.0217,-0.0219,-0.02,-0.02,-0.02,0,0,-0.0243,-0.0243,-0.0254,-0.0258,-0.0252,-0.0264,-0.0243,-0.024,-0.0261,-0.0235,-0.0271,-0.0262,-0.025,-0.027,-0.0272,-0.0255,-0.0246,-0.0269,-0.0274,-0.0262,-0.0219,-0.0221,-0.0222,-0.0201,-0.0201,-0.02,0,0,-0.0262,-0.0271,-0.0287,-0.0285,-0.0274,-0.0276,-0.0276,-0.0274,-0.0285,-0.0308,-0.0299,-0.03,-0.0312,-0.0307,-0.0306,-0.034,-0.0284,-0.0341,-0.0367,-0.0329,-0.033,-0.033,-0.0264,-0.0258,-0.0342,-0.0342,-0.0342,0,-0.0271,-0.0295,-0.0289,-0.0297,-0.0305,-0.0286,-0.0304,-0.0315,-0.0321,-0.0332,-0.0328,-0.0339,-0.0329,-0.0344,-0.0362,-0.0355,-0.0313,-0.0344,-0.0337,-0.0337,-0.0335,-0.0268,-0.026,-0.0346,-0.0346,-0.0345,-0.0345,0,-0.0297,-0.0319,-0.0324,-0.0341,-0.0351,-0.0356,-0.0366,-0.0385,-0.0395,-0.0399,-0.0416,-0.0403,-0.0404,-0.0406,-0.0399,-0.0394,-0.0359,-0.0353,-0.0319,-0.0342,-0.0269,-0.026,-0.0352,-0.035,-0.0349,-0.0348,0,0,-0.0307,-0.0339,-0.034,-0.0358,-0.0373,-0.0381,-0.0424,-0.0449,-0.0473,-0.0475,-0.05,-0.0503,-0.0478,-0.0472,-0.0454,-0.0422,-0.0382,-0.0389,-0.0386,-0.0325,-0.0273,-0.0254,-0.0241,-0.0379,-0.0378,-0.0378,-0.0222,0,-0.0326,-0.0361,-0.0377,-0.0419,-0.0441,-0.0451,-0.0496,-0.0515,-0.0531,-0.0552,-0.0525,-0.0532,-0.0509,-0.0503,-0.0474,-0.0405,-0.0361,-0.0422,-0.0258,-0.0252,-0.0234,-0.0232,-0.0375,-0.0215,-0.0213,-0.0211,-0.021,0,-0.0347,-0.037,-0.0419,-0.0467,-0.0477,-0.0509,-0.0564,-0.0595,-0.0616,-0.0623,-0.0614,-0.0587,-0.0544,-0.0522,-0.0401,-0.0441,-0.0363,-0.0302,-0.0294,-0.024,-0.0216,-0.0187,-0.0191,-0.0193,-0.0194,-0.0195,-0.0197,0,-0.0356,-0.04,-0.0446,-0.0459,-0.0513,-0.0547,-0.0578,-0.0617,-0.0645,-0.0653,-0.0648,-0.0608,-0.0558,-0.0478,-0.0348,-0.0374,-0.0195,-0.0214,-0.0115,-0.0111,-0.0139,-0.0141,-0.0121,-0.0122,-0.0122,-0.0122,-0.0123,0,-0.0372,-0.0406,-0.0456,-0.0477,-0.0538,-0.0565,-0.0627,-0.0652,-0.0682,-0.0698,-0.0671,-0.0642,-0.0542,-0.0433,-0.0342,-0.0182,-0.0181,-0.0105,-0.0073,-0.0175,-0.0182,-0.0131,-0.0135,-0.0116,-0.0118,-0.0119,-0.012,0,-0.0381,-0.0412,-0.0464,-0.0523,-0.0546,-0.0589,-0.0655,-0.069,-0.0705,-0.072,-0.0712,-0.0639,-0.049,-0.037,-0.0203,-0.0148,-0.0018,0.004,-0.0043,-0.0019,0.0038,0.0029,0.0151,0.0153,0.0154,0.0156,0.0157,0,-0.0392,-0.0419,-0.049,-0.0524,-0.0556,-0.0619,-0.0665,-0.0707,-0.0725,-0.0706,-0.069,-0.0562,-0.0497,-0.0223,-0.012,0.007,0.0084,0.0148,0.0053,0.0046,0.0065,0.0053,0.0042,0.0159,0.016,0.016,0.0161,0,-0.0405,-0.0433,-0.0472,-0.0539,-0.0593,-0.0651,-0.0697,-0.0708,-0.0736,-0.0746,-0.0647,-0.0538,-0.036,-0.0195,-0.0028,0.0091,0.009,0.0164,0.016,0.0071,0.0057,0.0072,0.006,0.0166,0.0165,0.0165,0.0164,0,-0.0412,-0.0442,-0.0489,-0.0548,-0.0611,-0.0652,-0.0685,-0.0681,-0.0696,-0.0666,-0.0623,-0.047,-0.0385,-0.0178,-0.0036,0.0093,0.0095,0.0095,0.0094,0.0089,0.0004,-0.0027,0.0096,0,0,0,0,0,-0.0413,-0.0441,-0.0492,-0.0553,-0.0611,-0.0645,-0.0692,-0.0713,-0.0726,-0.0653,-0.0643,-0.0484,-0.0278,-0.0177,-0.004,-0.0025,0.0108,0.0134,0.0105,0.0197,0.019,0.0099,0,0,0,0,0,0,-0.0416,-0.0458,-0.0483,-0.0538,-0.0575,-0.0638,-0.0666,-0.0678,-0.0625,-0.0617,-0.0482,-0.0466,-0.0236,-0.0338,-0.0035,-0.0001,-0.0008,0.0226,0.0228,0.02,0.0195,0.019,0.0093,0,0,0,0,0]}]]